Printer-friendly version

IAU Minor Planet Center

Minor Planet Center

MPEC 2003-S88 : 2003 SZ219

The following Minor Planet Electronic Circular may be linked-to from your own Web pages, but must not otherwise be redistributed electronically.


Read MPEC 2003-S87 Read MPEC 2003-S89


M.P.E.C. 2003-S88                                Issued 2003 Sept. 30, 12:08 UT

     The Minor Planet Electronic Circulars contain information on unusual
         minor planets and routine data on comets.  They are published
   on behalf of Commission 20 of the International Astronomical Union by the
          Minor Planet Center, Smithsonian Astrophysical Observatory,
                          Cambridge, MA 02138, U.S.A.

         Supported in part by the Steven and Michele Kirsch Foundation
             Prepared using the Tamkin Foundation Computer Network

                              MPC@CFA.HARVARD.EDU
          URL http://cfa-www.harvard.edu/iau/mpc.html  ISSN 1523-6714

                                  2003 SZ219

Observations:
     K03SL9Z* C2003 09 28.35907 04 20 22.16 +14 47 21.0          19.3        704
     K03SL9Z  C2003 09 28.37257 04 20 23.85 +14 47 06.9          19.5        704
     K03SL9Z  C2003 09 28.38548 04 20 25.66 +14 46 54.3          19.5        704
     K03SL9Z  C2003 09 28.39813 04 20 27.32 +14 46 41.2          19.6        704
     K03SL9Z  C2003 09 28.41124 04 20 29.03 +14 46 27.6          19.4        704
     K03SL9Z  C2003 09 29.07601 04 21 59.31 +14 34 53.9                      118
     K03SL9Z  C2003 09 29.08064 04 21 59.89 +14 34 47.8                      118
     K03SL9Z  C2003 09 29.27958 04 22 27.63 +14 31 20.8          18.3 R      G90
     K03SL9Z  C2003 09 29.28848 04 22 28.72 +14 31 12.8          18.6 R      G90
     K03SL9Z  C2003 09 29.29029 04 22 29.10 +14 31 09.8          18.2 R      G90
     K03SL9Z  C2003 09 29.31304 04 22 32.06 +14 30 48.4          19.2 R      854
     K03SL9Z  C2003 09 29.32201 04 22 33.13 +14 30 39.5          19.0 R      854
     K03SL9Z  C2003 09 29.34721 04 22 36.43 +14 30 11.1          18.8        704
     K03SL9Z  C2003 09 29.35108 04 22 36.95 +14 30 06.8          18.7 R      854
     K03SL9Z  C2003 09 29.35466 04 22 37.52 +14 30 02.3          18.7 R      854
     K03SL9Z  C2003 09 29.35615 04 22 37.60 +14 30 01.8          19.2        704
     K03SL9Z  C2003 09 29.35930 04 22 37.95 +14 29 59.1          19.0        704
     K03SL9Z  C2003 09 29.36005 04 22 38.21 +14 30 00.5          18.7 R      854
     K03SL9Z  C2003 09 29.36922 04 22 39.30 +14 29 47.4          19.2        704
     K03SL9Z  C2003 09 29.37139 04 22 39.60 +14 29 47.2          19.4        704
     K03SL9Z  C2003 09 29.38204 04 22 40.96 +14 29 35.1          19.7        704
     K03SL9Z  C2003 09 29.38397 04 22 41.11 +14 29 32.9          19.5        704
     K03SL9Z  C2003 09 29.39425 04 22 42.62 +14 29 21.9          19.0 R      699
     K03SL9Z  C2003 09 29.39494 04 22 42.68 +14 29 21.8          19.3        704
     K03SL9Z  C2003 09 29.39632 04 22 42.92 +14 29 19.5          19.7        704
     K03SL9Z  C2003 09 29.40841 04 22 44.42 +14 29 07.0                      699
     K03SL9Z  C2003 09 29.41033 04 22 44.60 +14 29 04.5          19.4        704
     K03SL9Z  C2003 09 29.42253 04 22 46.16 +14 28 51.7                      699
     K03SL9Z  C2003 09 29.43665 04 22 48.03 +14 28 36.7                      699
     K03SL9Z 5C2003 09 29.49618 04 22 55.75 +14 27 33.9          18.5 R      673
     K03SL9Z 5C2003 09 29.49815 04 22 56.01 +14 27 31.8                      673
     K03SL9Z 5C2003 09 29.50001 04 22 56.25 +14 27 29.7                      673
     K03SL9Z  C2003 09 30.01123 04 24 05.50 +14 18 19.7          18.9 R      132
     K03SL9Z  C2003 09 30.02422 04 24 07.19 +14 18 06.0          18.8 R      132
     K03SL9Z  C2003 09 30.03721 04 24 08.87 +14 17 51.8          18.9 R      132
     K03SL9Z  C2003 09 30.27065 04 24 40.43 +14 13 41.5          18.8 R      G90
     K03SL9Z  C2003 09 30.27394 04 24 40.80 +14 13 37.8          18.9 R      G90
     K03SL9Z  C2003 09 30.27724 04 24 41.25 +14 13 33.9          18.9 R      G90
     K03SL9Z 5C2003 09 30.37916 04 24 54.47 +14 11 44.6          19.0 R      673
     K03SL9Z 5C2003 09 30.38138 04 24 54.78 +14 11 42.2                      673
     K03SL9Z 5C2003 09 30.38360 04 24 55.06 +14 11 39.8                      673
     K03SL9Z 5C2003 09 30.38588 04 24 55.35 +14 11 37.2                      673

Observer details:
118 Modra.  Observer S. Gajdos.  0.6-m f/5.5 reflector + CCD.
132 Bedoin.  Observer P. Antonini.  0.30-m f/3.3 Schmidt-Cassegrain + CCD.
673 Table Mountain Observatory, Wrightwood.  Observer J. Young.  0.6-m
    reflector + CCD.
699 Lowell Observatory-LONEOS.  Observer B. A. Skiff.  0.59-m LONEOS Schmidt
    + CCD.
704 Lincoln Laboratory ETS, New Mexico.  Observers M. Blythe, F. Shelly,
    M. Bezpalko, R. Huber, L. Manguso, D. Torres, R. Kracke, M. McCleary,
    H. Stange.  Measurers J. Stuart, R. Sayer, J. Evans, J. Kommers.  1.0-m
    f/2.15 reflector + CCD.
854 Sabino Canyon Observatory, Tucson.  Observer J. E. McGaha.  0.30-m f/10.0
    Schmidt-Cassegrain + CCD.
G90 Three Buttes Observatory, Tucson.  Observer G. R. Jones.  0.32-m
    Ritchey-Chretien + CCD.

Orbital elements:
2003 SZ219
Epoch 2003 Sept. 18.0 TT = JDT 2452900.5                MPC
M 341.17807              (2000.0)            P               Q
n   0.47196877     Peri.  216.13994     +0.70241280     -0.71123410
a   1.6337811      Node   189.35123     +0.68639373     +0.68712601
e   0.2075926      Incl.    9.78335     +0.18836113     +0.14833714
P   2.09           H   18.5           G   0.15
From 42 observations 2003 Sept. 28-30.

Ephemeris:
2003 SZ219               a,e,i = 1.63, 0.21, 10                  q = 1.2946
Date    TT    R. A. (2000) Decl.     Delta      r     Elong.  Phase     V
2003 09 28    04 19.54   +14 53.6    0.492    1.311   118.6    42.2    19.2
2003 10 08    04 40.68   +11 39.9    0.449    1.302   123.4    39.9    18.9
2003 10 18    04 57.62   +07 43.4    0.415    1.296   128.6    37.0    18.7
2003 10 28    05 09.34   +03 19.1    0.389    1.295   134.0    33.5    18.4
2003 11 07    05 15.27   -01 08.2    0.372    1.296   139.5    29.8    18.2
2003 11 17    05 15.58   -05 07.4    0.365    1.302   144.1    26.4    18.1
2003 11 27    05 11.25   -08 06.7    0.368    1.311   147.1    24.1    18.0
2003 12 07    05 04.45   -09 41.7    0.381    1.323   147.6    23.5    18.1
2003 12 17    04 57.79   -09 47.2    0.406    1.339   145.6    24.6    18.3
2003 12 27    04 53.48   -08 33.8    0.441    1.357   141.6    26.7    18.6
2004 01 06    04 53.02   -06 22.6    0.486    1.377   136.6    29.3    18.9
2004 01 16    04 56.78   -03 38.2    0.540    1.400   131.3    31.9    19.2
2004 01 26    05 04.57   -00 39.9    0.604    1.424   125.8    34.1    19.6
2004 02 05    05 15.94   +02 17.0    0.676    1.450   120.4    35.9    19.9
2004 02 15    05 30.26   +05 02.3    0.756    1.477   115.2    37.2    20.2
2004 02 25    05 46.98   +07 29.9    0.843    1.505   110.1    38.1    20.5
2004 03 06    06 05.62   +09 36.0    0.937    1.533   105.3    38.6    20.8
2004 03 16    06 25.69   +11 19.0    1.036    1.562   100.5    38.8    21.1
2004 03 26    06 46.84   +12 38.3    1.140    1.590    95.9    38.6    21.3
2004 04 05    07 08.76   +13 34.3    1.248    1.619    91.4    38.2    21.6
2004 04 15    07 31.14   +14 07.9    1.360    1.647    87.0    37.5    21.8
2004 04 25    07 53.77   +14 20.6    1.473    1.674    82.6    36.6    21.9

Timothy B. Spahr             (C) Copyright 2003 MPC           M.P.E.C. 2003-S88

Read MPEC 2003-S87 Read MPEC 2003-S89


Our Web policy. Index to the CBAT/MPC/ICQ pages.


Valid HTML 4.01!